Regional Weather Roundup
Issued by NWS

Home | Current Version | Previous Version | Text Only | Print | Product List | Glossary On
Versions: 1 2 3 4 5 6 7 8 9 10 11 12 13 14 15 16 17 18 19 20 21 22 23 24 25 26 27 28 29 30 31 32 33 34 35 36 37 38 39 40 41 42 43 44 45 46 47 48 49 50
000
ASUS43 KMKX 211121
RWRWI

WISCONSIN REGIONAL WEATHER ROUNDUP
NATIONAL WEATHER SERVICE MILWAUKEE/SULLIVAN WI
500 AM CST TUE NOV 21 2017

NOTE: "FAIR" INDICATES FEW OR NO CLOUDS BELOW 12,000 FEET WITH NO
SIGNIFICANT WEATHER AND/OR OBSTRUCTIONS TO VISIBILITY.

WIZ001-002-006>008-014>016-023>028-211200-
NORTHWEST WISCONSIN

CITY           SKY/WX    TMP DP  RH WIND       PRES   REMARKS
SUPERIOR ARPT  CLOUDY    26  13  58 W18G29    29.63R WCI  13
ASHLAND        FLURRIES  29  16  58 W21G29    29.55R WCI  16
HAYWARD        CLOUDY    29  16  58 NW15G25   29.56R WCI  18
SIREN          CLOUDY    27  15  60 W17G32    29.65R WCI  14
CUMBERLAND     CLOUDY    28  14  54 W24G39    29.61R WCI  14
RICE LAKE      CLOUDY    30  18  60 W21G30    29.63R WCI  17
CHETEK         MOCLDY    30  18  61 W15G33    29.60R WCI  19
LADYSMITH      CLOUDY    33  22  65 W21       29.57R WCI  21
EAU CLAIRE     MOCLDY    33  20  58 W20G33    29.61R WCI  21
MENOMONIE      MOCLDY    30  18  59 W29G36    29.66R WCI  15
NEW RICHMOND   MOCLDY    25  12  56 NW28G36   29.70R WCI   9
OSCEOLA        CLOUDY    26  14  60 W14G24    29.74R WCI  14
$$

WIZ003>005-009-010-017-018-211200-
NORTH CENTRAL WISCONSIN

CITY           SKY/WX    TMP DP  RH WIND       PRES   REMARKS
MANITOWISH WTR CLOUDY    28  18  65 W13G31    29.46R WCI  17
ARBOR VITAE    PTCLDY    32  21  63 W15G23    29.44R WCI  22
WOODRUFF       PTCLDY    32  21  63 W15G23    29.44R WCI  22
RHINELANDER    CLEAR     33  21  61 W21G32    29.44R WCI  21
EAGLE RIVER    CLOUDY    32  19  58 W15G30    29.43R WCI  21
LAND O LAKES   CLOUDY    32  19  58 W15G24    29.43R WCI  21
PHILLIPS       CLOUDY    29  18  61 NW15G24   29.51R WCI  18
TOMAHAWK       CLEAR     32  20  60 W10G20    29.47R WCI  23
MEDFORD        MOCLDY    32  24  71 W18G25    29.50R WCI  21
MERRILL        PTCLDY    33  21  60 NW13      29.49R WCI  24
$$

WIZ029-030-035-036-043>047-211200-
CENTRAL WISCONSIN

CITY           SKY/WX    TMP DP  RH WIND       PRES   REMARKS
WAUSAU         CLEAR     35  21  56 NW24G38   29.48R WCI  23
MOSINEE        CLEAR     34  27  75 W17       29.51R WCI  23
MARSHFIELD     CLEAR     35  22  58 W15G28    29.51R WCI  25
STEVENS POINT  CLEAR     36  23  59 W10G20    29.52R WCI  28
WAUPACA        CLEAR     42  24  47 W10       29.51R
WAUTOMA        PTCLDY    41  24  51 W14       29.53R
WISC RAPIDS    CLEAR     37  23  56 W7        29.54R WCI  32
CAMP DOUGLAS   MOCLDY   N/A N/A N/A W14G25    29.58R
$$

WIZ011>013-019>022-031-037>040-048>050-211200-
NORTHEAST WISCONSIN

CITY           SKY/WX    TMP DP  RH WIND       PRES   REMARKS
ANTIGO         CLEAR     33  23  65 W21       29.45R WCI  21
SHAWANO        CLEAR     41  25  52 W12G17    29.47R
OCONTO         CLEAR     41  26  55 W16G24    29.45R
STURGEON BAY   CLEAR     43  29  57 SW16G23   29.44R
GREEN BAY      CLEAR     42  29  59 W20G31    29.47R
MANITOWOC      CLOUDY    46  29  51 SW12      29.49R
APPLETON       CLEAR     41  23  48 W17G24    29.48R
CLINTONVILLE   CLEAR     39  25  56 W14       29.48R WCI  31
OSHKOSH        CLEAR     44  28  53 W12       29.50R
$$

WIZ032>034-041-042-053>061-211200-
SOUTHWEST WISCONSIN

CITY           SKY/WX    TMP DP  RH WIND       PRES   REMARKS
LA CROSSE      CLOUDY    39  15  37 NW20G26   29.64R WCI  29
SPARTA         CLOUDY    38  18  44 W15G23    29.61R WCI  30
VIROQUA        CLOUDY    37  17  44 W13G20    29.61R WCI  29
BOSCOBEL       MOCLDY    43  24  47 W9        29.64R
PRAIRIE DU CHI CLOUDY    40  23  50 W13       29.66R WCI  33
PLATTEVILLE    CLOUDY    40  31  69 W10       29.64F WCI  34
$$

WIZ056-057-062-063-064-067-068-211200-
SOUTH CENTRAL WISCONSIN

CITY           SKY/WX    TMP DP  RH WIND       PRES   REMARKS
REEDSBURG      CLOUDY    42  26  52 W13G20    29.57R
BARABOO/DELLS  CLOUDY    42  24  50 W12G17    29.56R
LONE ROCK      CLOUDY    42  29  59 W10       29.60R
MINERAL POINT  CLOUDY    41  30  65 W10       29.62S
MADISON        MOCLDY    43  31  62 W6        29.58R
MIDDLETON      MOCLDY    44  29  56 SW7       29.58S
WATERTOWN      PTCLDY    41  32  70 SW9       29.57R
MONROE         CLEAR     41  30  65 W17       29.62R
JANESVILLE     PTCLDY    39  32  75 SW10      29.61R WCI  32
$$

WIZ051-052-058>065-066-070>072-211200-
SOUTHEAST WISCONSIN

CITY           SKY/WX    TMP DP  RH WIND       PRES   REMARKS
MILWAUKEE      PTCLDY    42  32  67 SW14      29.58S
WAUKESHA       CLEAR     41  30  65 SW12G18   29.58S
MILWAUKEE/TIMM CLEAR     43  30  61 SW8       29.57S
RACINE         CLEAR     43  32  65 SW15G24   29.61F
BURLINGTON     CLEAR     40  36  83 SW8       29.61R
KENOSHA        CLEAR     43  31  62 SW15G26   29.61S
FOND DU LAC    CLEAR     41  29  62 SW10      29.51R
SHEBOYGAN      PTCLDY    43  32  65 SW10      29.50S
WEST BEND      MOCLDY    41  30  65 SW9       29.52S
JUNEAU         PTCLDY    40  31  68 SW13      29.55F WCI  33
$$

LSZ147-162-211200-
LAKE SUPERIOR

STATION/POSITION TIME  TEMP    WIND        PRES    WAVE
                       AIR SEA DIR/SP/G            HT/PER
                 (UTC) (F)     (DEG/KT/KT) (MB)    (FT/S)
DEVILS ISLAND    1100   28     290/ 37/ 42 1000.6R
SAXON HARBOR     1107   31     290/ 19/ 35  999.7R
$$

LMZ867-665-643>646-211200-
LAKE MICHIGAN

STATION/POSITION TIME  TEMP    WIND        PRES    WAVE
                       AIR SEA DIR/SP/G            HT/PER
                 (UTC) (F)     (DEG/KT/KT) (MB)    (FT/S)
N MID LAKE BUOY  1050   47 48  240/ 23/ 29  995.1R   9/ 9
NORTHPORT PIER   1040   45     240/  6/ 17  995.3R
KEWAUNEE LAKESHO 1054   44     240/  8/ 13  997.0R
SHEBOYGAN LAKESH 1100   45     230/ 14/ 17  999.2S
PORT WASHINGTON  1040   46     240/ 10/ 15 1001.4S
MILWAUKEE LAKESH 1100   44     230/ 14/ 16   N/A
S MID LAKE BUOY  1050   46 48  250/ 25/ 31 1002.6R   8/ 7
KENOSHA   LAKESH 1100   45     230/ 12/ 21 1003.0
$$

TC  - TEMPERATURE IN CELSIUS
VSB - VISIBILITY IN STATUTE MILES
WCI - WIND CHILL INDEX
HX  - HEAT INDEX





USA.gov is the U.S. government's official web portal to all federal, state and local government web resources and services.